Regional Weather Roundup
Issued by NWS Nashville, TN

Home | Current Version | Previous Version | Text Only | Print | Product List | Glossary On
Versions: 1 2 3 4 5 6 7 8 9 10 11 12 13 14 15 16 17 18 19 20 21 22 23 24 25 26 27 28 29 30 31 32 33 34 35 36 37 38 39 40 41 42 43 44 45 46 47 48 49 50
000
ASUS44 KOHX 260110
RWROHX
MIDDLE TENNESSEE HOURLY WEATHER ROUNDUP
NATIONAL WEATHER SERVICE NASHVILLE TN
800 PM CDT THU MAY 25 2017

NOTE: "FAIR" INDICATES FEW OR NO CLOUDS BELOW 12,000 FEET WITH
NO SIGNIFICANT WEATHER AND/OR OBSTRUCTIONS TO VISIBILITY.

* THESE REPORTS ARE NOT UNDER NWS QUALITY CONTROL AND MAY NOT
  REPORT WEATHER SUCH AS PRECIPITATION AND FOG.


TNZ005>011-023>034-057-059-062>066-078-080-260200
...NORTHERN MIDDLE TENNESSEE...

CITY           SKY/WX    TMP DP  RH WIND       PRES   REMARKS
CLARKSVILLE    CLEAR     68  51  54 SW6       29.79R
CROSSVILLE     CLOUDY    61  52  72 W5        29.85R
GALLATIN       CLEAR     68  54  60 CALM      29.83R
DICKSON        CLEAR     66  51  58 SW3       29.81R
LEBANON        CLEAR     67  51  56 CALM      29.80R
NASHVILLE      PTCLDY    69  51  52 SW3       29.81R
PORTLAND       CLEAR     66  52  59 SW5       29.80R
SMYRNA         CLEAR     66  52  60 SW7       29.82R
SPARTA         MOCLDY    63  57  82 CALM      29.81R
SPRINGFIELD    PTCLDY    64  54  68 SW5       29.79R
WEST NASHVILLE PTCLDY    68  54  60 SW6       29.79R
$$
TNZ056-058-060-061-075>077-079-093>097-260200
...SOUTHERN MIDDLE TENNESSEE...

CITY           SKY/WX    TMP DP  RH WIND       PRES   REMARKS
COLUMBIA       CLEAR     66  52  59 SW5       29.81R
FAYETTEVILLE   CLEAR     64  52  63 SW5       29.84R
MCMINNVILLE    PTCLDY    64  54  68 SW3       29.83R
PULASKI        CLEAR     64  55  72 CALM      29.84R
SHELBYVILLE    CLEAR     64  52  63 SW5       29.83R
TULLAHOMA      CLEAR     63  52  67 SW3       29.85R
WINCHESTER     CLEAR     64  52  63 CALM        N/A
$$


...KEY TO REMARKS...
VSB - VISIBILITY IN MILES
WCI - WIND CHILL INDEX
HX  - HEAT INDEX




USA.gov is the U.S. government's official web portal to all federal, state and local government web resources and services.